User: anonymous   Login
Location: Unspecified
(0.0000°N, 0.0000°E)
Time: 15:47:59
(UTC+00:00)
Language:

AO-85 - Orbit

View from above orbital plane
View from above orbital plane
View from above satellite
View from above satellite

Ground track
Ground track

The orbit data is extracted from the following two-line orbital elements,

1 40967U 15058D   18199.23720036  .00000014  00000-0  19953-4 0 03918
2 40967 064.7801 097.0094 0209677 304.1752 053.9652 14.75744398058236
Epoch (UTC): 18 July 2018 05:41:34
Eccentricity: 0.0209677
inclination: 64.7801°
perigee height: 495 km
apogee height: 790 km
right ascension of ascending node: 97.0094°
argument of perigee: 304.1752°
revolutions per day: 14.75744398
mean anomaly at epoch: 53.9652°
orbit number at epoch: 5823

The dashed part of the orbit path shows where the satellite is in the earth's shadow,  

DLR